Location: Huppendorf
(49.9333°N, 11.1500°E)
Time: 02:43:22
(UTC+00:00)

Cosmos 2082 - Pass Details

Date: 27 February 2020
Orbit: 832 x 857 km, 71.0° (Epoch: 03 April)

Event Time Altitude Azimuth Distance (km) Brightness Sun altitude
Rises 20:04:20 0° 329° (NNW) 3,434 7.7 -30.8°
Reaches altitude 10° 20:06:48 10° 328° (NNW) 2,497 6.8 -31.1°
Enters shadow 20:11:37 60° 299° (WNW) 975 4.1 -31.8°
